EW9356 Weather Reports


time (UTC)temp
C
wind
direction
speed
KPH
gust
KPH
rain 1hr
cm
rain 24hr
cm
rain mn
cm
humidity
%
barometer
mb
20260507001536 11 240 20.9 29.0 0.00 0.15 0.15 98 1008.8
20260507001013 11 234 24.1 29.0 0.00 0.15 0.15 98 1008.8
20260507000511 11 230 22.5 29.0 0.00 0.15 0.15 98 1008.7
20260507000029 11 237 19.3 27.4 0.00 0.15 0.15 98 1008.5
20260506235516 11 225 14.5 29.0 0.00 0.15 0.15 98 1008.6
20260506235010 11 226 19.3 30.6 0.00 0.15 0.15 97 1008.5
20260506234529 11 207 22.5 30.6 0.00 0.15 0.15 98 1008.2
20260506234012 11 216 22.5 27.4 0.00 0.15 0.15 98 1008.5
20260506233513 11 256 16.1 24.1 0.00 0.15 0.15 98 1008.6
20260506233030 11 265 19.3 30.6 0.00 0.15 0.15 98 1008.8
20260506232513 11 211 22.5 35.4 0.00 0.15 0.15 98 1008.2
20260506232013 11 204 29.0 35.4 0.00 0.15 0.15 98 1008.0
20260506231536 11 211 22.5 25.7 0.00 0.15 0.15 98 1008.4
20260506231012 11 261 16.1 24.1 0.00 0.15 0.15 98 1008.5
20260506230512 11 235 16.1 30.6 0.00 0.15 0.15 97 1008.2
20260506230033 11 217 19.3 33.8 0.00 0.15 0.15 98 1008.4
20260506225515 11 203 24.1 33.8 0.00 0.15 0.15 98 1008.0
20260506225018 11 192 25.7 35.4 0.00 0.15 0.15 97 1008.0
20260506224531 11 187 27.4 35.4 0.00 0.15 0.15 97 1007.9
20260506224012 11 192 29.0 38.6 0.00 0.15 0.15 98 1007.9
20260506223512 11 198 29.0 38.6 0.00 0.15 0.15 98 1007.7
20260506223035 11 182 29.0 33.8 0.00 0.15 0.15 98 1007.9
20260506222514 11 196 25.7 32.2 0.00 0.15 0.15 98 1007.8
20260506222012 11 181 24.1 33.8 0.00 0.15 0.15 98 1007.9
20260506221530 11 191 22.5 29.0 0.00 0.15 0.15 98 1007.9
20260506221010 11 192 22.5 29.0 0.03 0.15 0.15 97 1008.0
20260506220511 11 199 19.3 24.1 0.03 0.15 0.15 97 1007.9
20260506220030 10 187 19.3 25.7 0.05 0.15 0.15 97 1007.9
20260506215512 10 184 17.7 24.1 0.05 0.15 0.15 97 1008.0
20260506215012 10 175 16.1 19.3 0.08 0.15 0.15 97 1008.0
20260506214532 10 182 16.1 19.3 0.08 0.15 0.15 97 1007.7
20260506214018 11 164 16.1 25.7 0.10 0.15 0.15 97 1008.0
20260506213517 11 179 17.7 29.0 0.10 0.15 0.15 97 1007.9
20260506213029 11 180 22.5 29.0 0.10 0.15 0.15 97 1008.1
20260506212512 11 192 20.9 27.4 0.10 0.15 0.15 97 1007.9
20260506212015 11 186 20.9 30.6 0.10 0.15 0.15 96 1007.9
20260506211532 11 180 20.9 27.4 0.10 0.15 0.15 96 1008.3
20260506211013 11 192 20.9 32.2 0.10 0.10 0.10 96 1008.1
20260506210513 11 193 24.1 32.2 0.10 0.10 0.10 96 1008.1
20260506210036 11 179 27.4 35.4 0.08 0.10 0.10 96 1008.2
20260506205512 11 181 27.4 35.4 0.08 0.10 0.10 95 1007.8
20260506205011 11 176 29.0 45.1 0.05 0.08 0.08 95 1008.0
20260506204536 11 187 33.8 45.1 0.05 0.08 0.08 95 1008.1
20260506204013 11 184 32.2 45.1 0.03 0.05 0.05 94 1008.4
20260506203512 11 188 30.6 40.2 0.03 0.05 0.05 94 1008.3
20260506203040 11 167 29.0 38.6 0.00 0.03 0.03 94 1008.3
20260506202512 11 162 30.6 38.6 0.00 0.03 0.03 94 1008.2
20260506202012 11 178 33.8 41.8 0.00 0.03 0.03 94 1008.2
20260506201540 11 173 35.4 45.1 0.00 0.03 0.03 94 1008.0
20260506201013 11 182 37.0 45.1 0.00 0.03 0.03 94 1007.9
20260506200513 11 164 35.4 45.1 0.00 0.03 0.03 94 1007.9
20260506200039 11 180 35.4 38.6 0.00 0.03 0.03 94 1008.0
20260506195516 11 182 32.2 38.6 0.00 0.03 0.03 94 1008.3
20260506195014 11 169 30.6 41.8 0.00 0.03 0.03 94 1008.2
20260506194535 11 191 30.6 38.6 0.00 0.03 0.03 94 1008.5
20260506194013 11 167 30.6 38.6 0.00 0.03 0.03 93 1008.5
20260506193513 11 167 29.0 38.6 0.00 0.03 0.03 93 1008.6
20260506193035 11 187 30.6 38.6 0.03 0.03 0.03 93 1008.4
20260506192512 11 175 30.6 37.0 0.03 0.03 0.03 93 1008.8
20260506192017 11 190 33.8 38.6 0.03 0.03 0.03 93 1008.6
20260506191543 11 175 35.4 41.8 0.03 0.03 0.03 93 1008.6
20260506191014 11 171 35.4 43.5 0.03 0.03 0.03 93 1008.8
20260506190515 11 171 35.4 41.8 0.03 0.03 0.03 93 1008.6
20260506190043 11 174 37.0 45.1 0.03 0.03 0.03 93 1008.8
20260506185513 11 173 38.6 45.1 0.03 0.03 0.03 93 1008.6
20260506185013 11 172 35.4 45.1 0.03 0.03 0.03 93 1008.9
20260506184546 11 167 37.0 45.1 0.03 0.03 0.03 93 1008.8
20260506184018 11 169 35.4 41.8 0.03 0.03 0.03 93 1009.0
20260506183514 11 160 35.4 41.8 0.03 0.03 0.03 93 1008.9
20260506183033 11 169 33.8 43.5 0.00 0.00 0.00 92 1009.1
20260506182511 11 181 32.2 45.1 0.00 0.00 0.00 92 1009.5
20260506182011 11 178 33.8 45.1 0.00 0.00 0.00 92 1009.4
20260506181535 11 175 33.8 41.8 0.00 0.00 0.00 92 1009.3
20260506181015 11 189 35.4 41.8 0.00 0.00 0.00 92 1009.4
20260506180515 12 183 32.2 38.6 0.00 0.00 0.00 92 1009.5
20260506180046 12 177 33.8 45.1 0.00 0.00 0.00 92 1009.5
20260506175513 12 180 32.2 46.7 0.00 0.00 0.00 92 1009.5
20260506175012 12 184 32.2 46.7 0.00 0.00 0.00 92 1010.0
20260506174534 12 186 32.2 46.7 0.00 0.00 0.00 92 1010.0
20260506174012 12 173 33.8 49.9 0.00 0.00 0.00 91 1010.2
20260506173512 12 175 35.4 46.7 0.00 0.00 0.00 91 1010.1
20260506173104 12 187 38.6 51.5 0.00 0.00 0.00 91 1009.9
20260506172511 12 178 43.5 53.1 0.00 0.00 0.00 91 1009.5
20260506172013 12 175 41.8 56.3 0.00 0.00 0.00 91 1009.7
20260506171536 12 171 43.5 56.3 0.00 0.00 0.00 91 1009.6
20260506171012 12 173 40.2 53.1 0.00 0.00 0.00 91 1009.8
20260506170513 12 173 45.1 53.1 0.00 0.00 0.00 91 1009.8
20260506170040 12 160 43.5 54.7 0.00 0.00 0.00 91 1009.7
20260506165514 12 180 40.2 45.1 0.00 0.00 0.00 91 1010.0
20260506165014 12 175 38.6 45.1 0.00 0.00 0.00 91 1010.0
20260506164536 12 171 38.6 49.9 0.00 0.00 0.00 91 1010.2
20260506164014 12 198 38.6 46.7 0.00 0.00 0.00 91 1010.3
20260506163514 12 180 40.2 45.1 0.00 0.00 0.00 91 1010.5
20260506163038 12 180 38.6 51.5 0.00 0.00 0.00 91 1010.5
20260506162512 12 173 38.6 51.5 0.00 0.00 0.00 91 1010.4
20260506162012 12 175 40.2 49.9 0.00 0.00 0.00 91 1010.4
20260506161535 12 169 40.2 49.9 0.00 0.00 0.00 90 1010.6
20260506161013 12 176 40.2 48.3 0.00 0.00 0.00 90 1010.7
20260506160515 12 184 37.0 48.3 0.00 0.00 0.00 90 1010.7
20260506160039 12 165 35.4 48.3 0.00 0.00 0.00 90 1010.9
20260506155514 12 198 37.0 53.1 0.00 0.00 0.00 90 1011.1
20260506155012 12 169 37.0 48.3 0.00 0.00 0.00 91 1011.1
20260506154537 12 193 35.4 46.7 0.00 0.00 0.00 91 1011.2
20260506154016 12 183 37.0 48.3 0.00 0.00 0.00 91 1010.9
20260506153514 12 178 38.6 46.7 0.00 0.00 0.00 91 1010.9
20260506153035 12 182 33.8 40.2 0.00 0.00 0.00 91 1011.0
20260506152512 12 190 33.8 45.1 0.00 0.00 0.00 91 1011.2
20260506152012 12 184 32.2 41.8 0.00 0.00 0.00 91 1011.1
20260506151535 12 188 32.2 40.2 0.00 0.00 0.00 91 1011.2
20260506151013 12 183 32.2 43.5 0.00 0.00 0.00 91 1011.3
20260506150512 12 187 30.6 40.2 0.00 0.00 0.00 90 1011.5
20260506150032 12 174 32.2 43.5 0.00 0.00 0.00 90 1011.5
20260506145512 12 183 33.8 43.5 0.00 0.00 0.00 90 1011.5
20260506145013 12 175 32.2 41.8 0.00 0.00 0.00 90 1011.6
20260506144540 12 175 32.2 40.2 0.00 0.00 0.00 90 1011.4
20260506144012 12 187 32.2 41.8 0.00 0.00 0.00 90 1011.4
20260506143513 12 197 33.8 41.8 0.00 0.00 0.00 90 1011.2
20260506143037 12 202 33.8 43.5 0.00 0.00 0.00 91 1011.1
20260506142518 12 192 32.2 43.5 0.00 0.00 0.00 91 1011.2
20260506142014 12 192 32.2 41.8 0.00 0.00 0.00 91 1011.4
20260506141537 12 179 32.2 43.5 0.00 0.00 0.00 91 1011.2
20260506141016 12 202 32.2 41.8 0.00 0.00 0.00 91 1011.4
20260506140515 12 192 30.6 41.8 0.00 0.00 0.00 91 1011.4
20260506140035 12 206 32.2 41.8 0.00 0.00 0.00 91 1011.4
20260506135513 12 196 33.8 41.8 0.00 0.00 0.00 91 1011.4
20260506135013 12 194 30.6 40.2 0.00 0.00 0.00 91 1011.5
20260506134535 12 190 30.6 38.6 0.00 0.00 0.00 91 1011.3
20260506134012 12 191 30.6 40.2 0.00 0.00 0.00 92 1011.5
20260506133518 12 185 29.0 38.6 0.00 0.00 0.00 92 1011.3
20260506133033 12 192 29.0 38.6 0.00 0.00 0.00 92 1011.3
20260506132522 12 188 29.0 38.6 0.00 0.00 0.00 91 1011.2
20260506132012 12 194 32.2 38.6 0.00 0.00 0.00 91 1011.2
20260506131545 12 190 29.0 37.0 0.00 0.00 0.00 91 1011.3
20260506131014 12 190 30.6 40.2 0.00 0.00 0.00 91 1011.4
20260506130514 12 199 32.2 40.2 0.00 0.00 0.00 91 1011.5
20260506130049 12 184 32.2 43.5 0.00 0.00 0.00 91 1011.3
20260506125513 12 186 33.8 43.5 0.00 0.00 0.00 91 1011.5
20260506125013 12 190 33.8 46.7 0.00 0.00 0.00 91 1011.4
20260506124535 12 178 33.8 45.1 0.00 0.00 0.00 91 1011.5
20260506124014 12 182 33.8 45.1 0.00 0.00 0.00 91 1011.6
20260506123515 12 192 35.4 51.5 0.00 0.00 0.00 91 1011.3
20260506123043 12 180 37.0 51.5 0.00 0.00 0.00 91 1011.5
20260506122514 12 173 37.0 46.7 0.00 0.00 0.00 91 1011.4
20260506122013 12 184 37.0 48.3 0.00 0.00 0.00 91 1011.4
20260506121539 12 184 37.0 48.3 0.00 0.00 0.00 91 1011.4
20260506121016 12 181 37.0 51.5 0.00 0.00 0.00 92 1011.4
20260506120515 12 198 35.4 45.1 0.00 0.00 0.00 92 1011.6
20260506120042 12 196 30.6 40.2 0.00 0.00 0.00 92 1011.7
20260506115516 12 196 29.0 37.0 0.00 0.00 0.00 92 1011.5
20260506115016 11 192 22.5 33.8 0.00 0.00 0.00 92 1011.9
20260506114542 11 224 20.9 30.6 0.00 0.00 0.00 92 1011.9
20260506114014 11 244 22.5 33.8 0.00 0.00 0.00 93 1011.7
20260506113514 11 212 25.7 35.4 0.00 0.00 0.00 93 1011.9
20260506113051 11 195 27.4 40.2 0.00 0.00 0.00 92 1011.7
20260506112514 11 212 27.4 40.2 0.00 0.00 0.00 92 1011.7
20260506112015 11 194 25.7 33.8 0.00 0.00 0.00 92 1011.6
20260506111543 11 206 24.1 30.6 0.00 0.00 0.00 92 1011.8
20260506111012 11 223 22.5 30.6 0.00 0.00 0.00 92 1011.8
20260506110514 11 197 24.1 30.6 0.00 0.00 0.00 92 1011.7
20260506110055 11 200 24.1 32.2 0.00 0.00 0.00 93 1011.6
20260506105514 11 185 24.1 32.2 0.00 0.00 0.00 93 1011.5
20260506105017 11 218 24.1 35.4 0.00 0.00 0.00 93 1011.8
20260506104551 11 207 27.4 38.6 0.00 0.00 0.00 93 1011.8
20260506104013 11 197 25.7 37.0 0.00 0.00 0.00 93 1011.8
20260506103514 11 194 30.6 40.2 0.00 0.00 0.00 93 1011.7
20260506103050 11 197 30.6 40.2 0.00 0.00 0.00 94 1011.4
20260506102515 11 205 29.0 35.4 0.00 0.00 0.00 94 1011.6
20260506102015 11 186 27.4 33.8 0.00 0.00 0.00 94 1011.5
20260506101553 11 212 27.4 33.8 0.00 0.00 0.00 94 1011.5
20260506101013 11 206 22.5 30.6 0.00 0.00 0.00 94 1011.4
20260506100515 11 209 20.9 29.0 0.00 0.00 0.00 94 1011.6
20260506100100 11 207 16.1 25.7 0.00 0.00 0.00 94 1011.7
20260506095513 11 205 16.1 24.1 0.00 0.00 0.00 94 1011.6
20260506095017 11 195 16.1 22.5 0.00 0.00 0.00 94 1011.5
20260506094538 11 221 16.1 22.5 0.00 0.00 0.00 94 1011.6
20260506094017 11 209 12.9 17.7 0.00 0.00 0.00 93 1011.7
20260506093513 11 217 11.3 19.3 0.00 0.00 0.00 94 1011.8
20260506093046 11 256 12.9 17.7 0.00 0.00 0.00 94 1011.9
20260506092512 11 243 14.5 17.7 0.00 0.00 0.00 94 1011.8
20260506092016 11 252 12.9 17.7 0.00 0.00 0.00 94 1011.9
20260506091542 11 249 11.3 16.1 0.00 0.00 0.00 94 1011.9
20260506091015 11 242 12.9 19.3 0.00 0.00 0.00 94 1011.9
20260506090514 11 254 11.3 19.3 0.00 0.00 0.00 94 1011.9
20260506090046 11 254 11.3 20.9 0.00 0.00 0.00 94 1011.9
20260506085513 12 227 16.1 22.5 0.00 0.00 0.00 94 1012.1
20260506085016 12 239 16.1 22.5 0.00 0.00 0.00 93 1012.3
20260506084605 12 232 14.5 24.1 0.00 0.00 0.00 93 1012.2
20260506084016 12 216 17.7 30.6 0.00 0.00 0.00 93 1012.4
20260506083515 12 206 24.1 40.2 0.00 0.00 0.00 93 1012.3
20260506083046 12 188 29.0 38.6 0.00 0.00 0.00 93 1012.3
20260506082514 12 189 32.2 48.3 0.00 0.00 0.00 93 1011.8
20260506082014 12 201 35.4 48.3 0.00 0.00 0.00 94 1011.8
20260506081550 12 173 32.2 45.1 0.00 0.00 0.00 94 1012.1
20260506081015 12 178 33.8 45.1 0.00 0.00 0.00 94 1012.0
20260506080514 12 208 30.6 41.8 0.00 0.00 0.00 94 1012.0
20260506073515 12 264 14.5 20.9 0.00 0.00 0.00 94 1012.4
20260506073046 11 240 14.5 20.9 0.00 0.00 0.00 94 1012.3
20260506072515 11 251 14.5 24.1 0.00 0.00 0.00 94 1012.3
20260506072015 11 238 14.5 24.1 0.00 0.00 0.00 94 1012.3
20260506071539 11 253 17.7 30.6 0.00 0.00 0.00 94 1012.2
20260506071018 11 256 20.9 30.6 0.00 0.00 0.00 93 1012.3
20260506070516 11 214 24.1 37.0 0.00 0.00 0.00 93 1012.1
20260506062514 11 197 25.7 35.4 0.00 0.00 0.00 94 1012.0
20260506062013 11 199 25.7 35.4 0.00 0.00 0.00 94 1012.2
20260506061541 11 209 25.7 33.8 0.00 0.00 0.00 94 1012.0
20260506061017 11 214 25.7 32.2 0.00 0.00 0.00 93 1011.9
20260506060517 11 211 22.5 32.2 0.00 0.00 0.00 93 1012.3
20260506051220 12 231 17.7 25.7 0.00 0.00 0.00 92 1012.9
20260506050720 12 232 16.1 24.1 0.00 0.00 0.00 92 1012.9
20260506045014 12 244 22.5 29.0 0.00 0.00 0.00 92 1013.2
20260506044615 12 234 24.1 30.6 0.00 0.00 0.00 92 1013.0
20260506044016 12 226 24.1 30.6 0.00 0.00 0.00 92 1012.8
20260506043511 12 236 25.7 32.2 0.00 0.00 0.00 92 1012.9
20260506043035 12 231 25.7 30.6 0.00 0.00 0.00 92 1012.9
20260506042514 12 225 24.1 30.6 0.00 0.00 0.00 92 1013.0
20260506042016 12 230 25.7 29.0 0.00 0.00 0.00 92 1012.9
20260506041536 12 232 25.7 33.8 0.00 0.00 0.00 92 1013.1
20260506041021 12 221 27.4 33.8 0.00 0.00 0.00 92 1012.8
20260506040511 12 225 25.7 33.8 0.00 0.00 0.00 92 1012.9
20260506040042 12 198 25.7 37.0 0.00 0.00 0.00 92 1013.0
20260506035514 12 217 27.4 32.2 0.00 0.00 0.00 92 1012.6
20260506035011 12 241 27.4 35.4 0.00 0.00 0.00 92 1012.8
20260506034601 12 223 29.0 35.4 0.00 0.00 0.00 91 1012.5
20260506034014 12 235 29.0 32.2 0.00 0.00 0.00 91 1012.9
20260506033515 12 230 29.0 37.0 0.00 0.00 0.00 91 1012.8
20260506033039 12 229 29.0 37.0 0.00 0.00 0.00 91 1013.0
20260506032513 12 242 25.7 32.2 0.00 0.00 0.00 91 1013.0
20260506032021 12 248 25.7 32.2 0.00 0.00 0.00 91 1012.9
20260506031544 12 234 24.1 29.0 0.00 0.00 0.00 91 1012.8
20260506031015 12 239 22.5 29.0 0.00 0.00 0.00 91 1012.9
20260506030512 12 242 22.5 29.0 0.00 0.00 0.00 91 1012.9
20260506030042 12 261 19.3 27.4 0.00 0.00 0.00 91 1013.0
20260506025513 12 252 20.9 27.4 0.00 0.00 0.00 91 1012.7
20260506025013 12 251 20.9 29.0 0.00 0.00 0.00 91 1012.5
20260506024544 12 238 20.9 29.0 0.00 0.00 0.00 92 1012.7
20260506024016 12 252 20.9 30.6 0.00 0.00 0.00 92 1012.8
20260506023516 12 232 22.5 32.2 0.00 0.00 0.00 92 1012.6
20260506023100 12 234 24.1 32.2 0.00 0.00 0.00 91 1012.9
20260506022515 12 240 25.7 33.8 0.00 0.00 0.00 91 1012.7
20260506022013 12 231 29.0 37.0 0.00 0.00 0.00 91 1012.5
20260506021537 12 231 29.0 40.2 0.00 0.00 0.00 90 1012.4
20260506021014 12 233 27.4 40.2 0.00 0.00 0.00 90 1012.3
20260506020514 12 211 30.6 40.2 0.00 0.00 0.00 90 1012.2
20260506020045 12 209 32.2 41.8 0.00 0.00 0.00 90 1012.2
20260506015519 12 197 32.2 41.8 0.00 0.00 0.00 90 1012.0
20260506015014 12 200 32.2 43.5 0.00 0.00 0.00 89 1012.3
20260506014543 12 198 32.2 45.1 0.00 0.00 0.00 89 1012.1
20260506014018 12 200 37.0 43.5 0.00 0.00 0.00 89 1011.9
20260506013513 12 216 35.4 43.5 0.00 0.00 0.00 89 1011.7
20260506013042 12 204 37.0 46.7 0.00 0.00 0.00 89 1011.7
20260506012513 12 212 33.8 46.7 0.00 0.00 0.00 88 1011.6
20260506012012 12 192 38.6 48.3 0.00 0.00 0.00 88 1011.4
20260506011538 12 201 40.2 48.3 0.00 0.00 0.00 88 1011.1
20260506011013 12 203 38.6 49.9 0.00 0.00 0.00 88 1011.5
20260506010517 12 202 40.2 49.9 0.00 0.00 0.00 87 1011.1
20260506010042 12 198 40.2 48.3 0.00 0.00 0.00 87 1011.1
20260506005515 12 196 40.2 51.5 0.00 0.00 0.00 87 1011.1
20260506005013 12 192 40.2 51.5 0.00 0.00 0.00 87 1011.0
20260506004557 12 211 41.8 48.3 0.00 0.00 0.00 87 1010.8
20260506004015 12 192 40.2 48.3 0.00 0.00 0.00 87 1010.9
20260506003514 12 201 38.6 49.9 0.00 0.00 0.00 87 1011.0
20260506003051 12 205 40.2 51.5 0.00 0.00 0.00 87 1010.9
20260506002514 12 217 38.6 49.9 0.00 0.00 0.00 86 1010.9
20260506002013 12 204 38.6 48.3 0.00 0.00 0.00 86 1010.7